Location: Bretagne
(43.8474°N, 0.4650°W)
Time: 09:57:56
(UTC+00:00)

Cosmos 332 Rocket - Pass Details

Date: 15 January 2026
Orbit: 672 x 693 km, 74.0° (Epoch: 17 February)

Event Time Altitude Azimuth Distance (km) Brightness Sun altitude
Rises 17:29:29 0° 344° (NNW) 3,039 7.0 -7.2°
Reaches altitude 10° 17:31:52 10° 351° (N) 2,124 6.2 -7.6°
Maximum altitude 17:36:28 45° 65° (ENE) 924 4.0 -8.4°
Drops below altitude 10° 17:41:03 10° 138° (SE) 2,122 6.1 -9.2°
Sets 17:43:26 0° 144° (SE) 3,037 6.9 -9.6°
